Weather History for KAFP - March, 2013

Change the Weather History Date:

Saturday, March 2, 2013

  Actual Average (KCLT) Record (KCLT)
Temperature  
Mean Temperature 40 °F 47 °F  
Max Temperature 46 °F 59 °F 80 °F (1887)
Min Temperature 34 °F 36 °F 14 °F (1980)
Degree Days  
Heating Degree Days 24 18  
Month to date heating degree days 36  
Since 1 July heating degree days 2735  
Cooling Degree Days 0 0  
Month to date cooling degree days 0  
Year to date cooling degree days 0  
Moisture  
Dew Point 34 °F    
Average Humidity 84    
Maximum Humidity 97    
Minimum Humidity 59    
Precipitation  
Precipitation 0.00 in 0.14 in 1.59 in (1960)
Month to date precipitation 0.27  
Year to date precipitation 7.00  
Snow  
Snow 0.00 in 0.10 in 10.40 in (1927)
Month to date snowfall 0.1  
Since 1 July snowfall 3.8  
Snow Depth -    
Sea Level Pressure  
Sea Level Pressure 29.89 in    
Wind  
Wind Speed 1 mph (West)    
Max Wind Speed 10 mph    
Max Gust Speed 20 mph    
Visibility 9 miles    
Events Rain    
T = Trace of Precipitation, MM = Missing Value Source: NWS Daily Summary

Daily Weather History Graph

Daily Weather History Graph

Search for Another Location

Airport or City:

Trip Planner

Search our weather history database for the weather conditions in past years. The results will help you decide how hot, cold, wet, or windy it might be!

Date:

Astronomy

Mar. 02, 2013 Rise Set
Actual Time 6:48 AM EST 6:17 PM EST
Civil Twilight 6:22 AM EST 6:42 PM EST
Nautical Twilight 5:53 AM EST 7:11 PM EST
Astronomical Twilight 5:24 AM EST 7:41 PM EST
Moon 11:40 PM EST (3/2) 9:28 AM EST (3/2)
Length of Visible Light 12h 19m
Length of Day
11h 28m
Waning Gibbous, 74% of the Moon is Illuminated
Mar 2
Waning Gibbous
Mar 4
Last Quarter
Mar 11
New
Mar 19
First Quarter
Mar 27
Full

Hourly Weather History & Observations

Time (EST) Temp. Windchill Dew Point Humidity Pressure Visibility Wind Dir Wind Speed Gust Speed Precip Events Conditions
12:15 AM 37.6 °F - 34.7 °F 89% 29.90 in 10.0 mi Calm Calm - N/A   Overcast
12:35 AM 37.9 °F - 34.9 °F 89% 29.91 in 10.0 mi Calm Calm - N/A   Overcast
12:55 AM 37.6 °F - 34.7 °F 89% 29.91 in 10.0 mi Calm Calm - N/A   Overcast
1:15 AM 37.4 °F - 34.2 °F 88% 29.92 in 10.0 mi Calm Calm - N/A   Overcast
1:35 AM 37.0 °F - 34.2 °F 89% 29.92 in 10.0 mi Calm Calm - N/A   Overcast
1:55 AM 37.6 °F - 34.3 °F 88% 29.92 in 10.0 mi Calm Calm - N/A   Overcast
2:15 AM 37.6 °F - 34.7 °F 89% 29.91 in 10.0 mi Calm Calm - N/A   Overcast
2:35 AM 37.4 °F - 34.7 °F 90% 29.91 in 10.0 mi Calm Calm - N/A   Overcast
2:55 AM 36.9 °F - 34.3 °F 91% 29.91 in 10.0 mi Calm Calm - N/A   Overcast
3:15 AM 37.2 °F - 34.9 °F 91% 29.90 in 10.0 mi Calm Calm - N/A   Overcast
3:35 AM 37.0 °F - 34.7 °F 91% 29.89 in 10.0 mi Calm Calm - N/A   Overcast
3:55 AM 36.5 °F - 34.3 °F 92% 29.88 in 10.0 mi Calm Calm - N/A   Overcast
4:15 AM 36.0 °F - 34.0 °F 93% 29.89 in 10.0 mi Calm Calm - N/A   Overcast
4:35 AM 36.5 °F - 34.3 °F 92% 29.88 in 10.0 mi Calm Calm - N/A   Overcast
4:55 AM 36.5 °F - 34.2 °F 91% 29.88 in 10.0 mi Calm Calm - N/A   Overcast
5:15 AM 36.5 °F - 34.3 °F 92% 29.89 in 10.0 mi Calm Calm - N/A   Overcast
5:35 AM 36.5 °F - 34.2 °F 91% 29.89 in 10.0 mi Calm Calm - N/A   Overcast
5:55 AM 36.1 °F - 34.0 °F 92% 29.89 in 10.0 mi Calm Calm - N/A   Overcast
6:15 AM 36.1 °F - 34.2 °F 93% 29.89 in 10.0 mi Calm Calm - N/A   Overcast
6:55 AM 36.0 °F - 34.0 °F 93% 29.89 in 10.0 mi Calm Calm - N/A   Overcast
7:15 AM 36.3 °F - 34.0 °F 91% 29.89 in 10.0 mi Calm Calm - N/A   Overcast
7:35 AM 36.7 °F - 34.2 °F 91% 29.90 in 10.0 mi Calm Calm - N/A   Overcast
7:55 AM 36.7 °F - 34.2 °F 91% 29.90 in 10.0 mi Calm Calm - N/A   Overcast
8:15 AM 37.2 °F - 34.2 °F 89% 29.91 in 10.0 mi Calm Calm - N/A   Overcast
8:35 AM 37.9 °F - 34.2 °F 86% 29.90 in 10.0 mi Calm Calm - N/A   Overcast
8:55 AM 38.7 °F - 32.5 °F 79% 29.91 in 10.0 mi Calm Calm - N/A   Overcast
9:15 AM 39.4 °F - 31.1 °F 72% 29.90 in 10.0 mi Calm Calm - N/A   Overcast
9:35 AM 39.4 °F - 30.0 °F 69% 29.90 in 7.0 mi Calm Calm - N/A   Unknown
9:55 AM 39.2 °F 35.0 °F 30.7 °F 72% 29.90 in 10.0 mi ENE 5.8 mph - N/A Rain Light Rain
10:15 AM 40.3 °F - 31.1 °F 70% 29.90 in 10.0 mi Calm Calm - N/A Rain Light Rain
10:35 AM 39.6 °F 37.4 °F 28.8 °F 65% 29.91 in 10.0 mi ENE 3.5 mph - N/A Rain Light Rain
10:55 AM 39.6 °F 36.3 °F 30.7 °F 71% 29.91 in 10.0 mi NNW 4.6 mph - N/A Rain Light Rain
11:15 AM 39.6 °F - 30.2 °F 69% 29.91 in 10.0 mi Calm Calm - N/A   Light Drizzle
11:35 AM 39.2 °F 34.2 °F 32.0 °F 75% 29.91 in 10.0 mi SSW 6.9 mph - N/A   Overcast
11:55 AM 37.4 °F 34.9 °F 33.3 °F 85% 29.91 in 10.0 mi South 3.5 mph - N/A Rain Light Rain
12:15 PM 37.8 °F 34.2 °F 34.2 °F 87% 29.90 in 10.0 mi SSW 4.6 mph - N/A   Overcast
12:35 PM 37.8 °F 34.2 °F 34.3 °F 87% 29.90 in 10.0 mi SW 4.6 mph - N/A Rain Light Rain
12:55 PM 37.6 °F 33.1 °F 34.7 °F 89% 29.89 in 5.0 mi SW 5.8 mph - N/A Rain Rain
1:15 PM 37.9 °F 35.5 °F 35.6 °F 91% 29.88 in 5.0 mi West 3.5 mph - N/A Rain Light Rain
1:35 PM 38.3 °F 35.9 °F 35.6 °F 90% 29.88 in 7.0 mi SW 3.5 mph - N/A   Light Drizzle
1:55 PM 38.3 °F 34.8 °F 35.8 °F 91% 29.87 in 7.0 mi SSW 4.6 mph - N/A   Overcast
2:15 PM 39.4 °F - 36.1 °F 88% 29.87 in 10.0 mi Calm Calm - N/A   Overcast
2:35 PM 41.0 °F 36.4 °F 37.2 °F 86% 29.86 in 10.0 mi SW 6.9 mph - N/A   Overcast
2:55 PM 41.0 °F 35.8 °F 36.5 °F 84% 29.85 in 10.0 mi SSW 8.1 mph - N/A   Overcast
3:15 PM 41.9 °F 37.5 °F 36.5 °F 81% 29.85 in 10.0 mi SSW 6.9 mph - N/A   Overcast
3:35 PM 43.7 °F 41.1 °F 34.3 °F 70% 29.85 in 10.0 mi SW 4.6 mph - N/A   Mostly Cloudy
3:55 PM 43.7 °F 42.1 °F 34.9 °F 71% 29.84 in 10.0 mi SW 3.5 mph - N/A   Scattered Clouds
4:15 PM 44.2 °F 41.0 °F 34.5 °F 69% 29.84 in 10.0 mi South 5.8 mph - N/A   Scattered Clouds
4:35 PM 45.7 °F 42.7 °F 33.1 °F 61% 29.84 in 10.0 mi WSW 5.8 mph - N/A   Scattered Clouds
4:55 PM 46.0 °F 44.8 °F 32.4 °F 59% 29.84 in 10.0 mi West 3.5 mph - N/A   Clear
5:15 PM 44.2 °F 41.8 °F 32.0 °F 62% 29.84 in 10.0 mi SW 4.6 mph - N/A   Scattered Clouds
5:35 PM 39.4 °F 32.7 °F 34.5 °F 83% 29.87 in 10.0 mi North 10.4 mph 19.6 mph N/A Rain Rain
5:55 PM 38.1 °F - 35.4 °F 90% 29.87 in 4.0 mi Calm Calm - N/A Rain Light Rain
6:15 PM 37.9 °F - 35.8 °F 92% 29.88 in 7.0 mi Calm Calm - N/A Rain Light Rain
6:35 PM 37.8 °F - 36.0 °F 93% 29.88 in 7.0 mi Calm Calm - N/A   Overcast
6:55 PM 37.4 °F - 35.8 °F 94% 29.88 in 5.0 mi Calm Calm - N/A   Overcast
7:15 PM 37.4 °F - 36.5 °F 97% 29.88 in 5.0 mi Calm Calm - N/A   Overcast
7:35 PM 37.6 °F - 36.5 °F 96% 29.88 in 5.0 mi Calm Calm - N/A   Overcast
7:55 PM 37.6 °F - 36.5 °F 96% 29.89 in 4.0 mi Calm Calm - N/A   Overcast
8:15 PM 37.6 °F - 36.7 °F 97% 29.89 in 5.0 mi Calm Calm - N/A   Overcast
8:35 PM 37.8 °F - 36.9 °F 97% 29.89 in 5.0 mi Calm Calm - N/A   Overcast
8:55 PM 37.9 °F - 37.0 °F 97% 29.91 in 7.0 mi Calm Calm - N/A   Overcast
9:15 PM 38.3 °F 33.2 °F 36.9 °F 95% 29.92 in 10.0 mi WNW 6.9 mph - N/A   Overcast
9:35 PM 38.3 °F 32.5 °F 33.6 °F 83% 29.92 in 10.0 mi NNW 8.1 mph - N/A   Overcast
9:55 PM 37.8 °F 35.3 °F 32.4 °F 81% 29.93 in 10.0 mi NNW 3.5 mph - N/A   Overcast
10:15 PM 37.4 °F 34.9 °F 32.2 °F 81% 29.93 in 10.0 mi NNW 3.5 mph - N/A   Overcast
10:35 PM 37.4 °F 32.1 °F 30.4 °F 76% 29.95 in 10.0 mi NW 6.9 mph - N/A   Overcast
10:55 PM 36.5 °F 31.0 °F 28.9 °F 74% 29.95 in 10.0 mi NW 6.9 mph - N/A   Overcast
11:15 PM 35.8 °F 30.9 °F 27.7 °F 72% 29.93 in 10.0 mi NW 5.8 mph - N/A   Overcast
11:35 PM 35.6 °F 30.7 °F 26.8 °F 70% 29.93 in 10.0 mi NW 5.8 mph - N/A   Overcast
11:55 PM 34.0 °F 31.0 °F 27.0 °F 75% 29.94 in 10.0 mi NNW 3.5 mph - N/A   Mostly Cloudy